Gold Country Challenge - Loft Flight -

Station: Loft Fly - T Race

Distance: 1 Miles    

Release: 14-Sep-2021 07:15

Weather Release: Lt Smoke Haze    Arrival: Smoky Day/Hot Later

Wind at Release:     Wind at Arrival:

Temp at Release: 67°    Temp at Arrival: °

Lofts: 100

Birds: 360

Clocked: 360

Smoky all over today but just good enough to loft fly.
Drops Pos Breeder Pigeon Name Color Sex Ent Arrival Speed To Win Elg PdChampAOC
1 Genesis Syndicate Loft - AZ 0205-AU21-GENS BC H 1 08:27:35.60 24.245 00:00:00 Yes
2 WŸŁØft - CA 25323-AU21-AA McCoy 207/1119 BB C 1 08:28:09.10 24.060 00:00:33 Yes
3 Al Shulman - CA 2295-AU21-WSJ BBSP H 1 08:28:14.20 24.032 00:00:39 Yes
4 Scm Lofts - CA 16716-AU21-JEDD BC H 1 08:28:21.00 23.995 00:00:45 Yes
5 FLY EAGLE LOFT - NC 98060-AU21-ARPU BC H 1 08:28:22.40 23.987 00:00:47 Yes
6 Peters - GA 2154-AU21-NA 2154 MONSTER KILLER-5 BC H 1 08:28:23.20 23.983 00:00:48 Yes
7 Erwin Racing Loft - CA 7025-AU21-BON GRIZ H 1 08:28:24.10 23.978 00:00:48 Yes
8 Jim Lauritzen - CA 0502-AU21-AVC SLTS H 1 08:28:27.90 23.957 00:00:52 Yes
9 Cloux Loft - CO 35001-AU21-AA BB H 1 08:28:29.20 23.950 00:00:54 Yes
10 Peters - GA 0369-AU21-NA 369 MONSTER KILLER-3 BC H 2 08:28:37.80 23.903 00:01:02 Yes
11 H & H Flying Circus - CA 0402-AU21-ML BB H 1 08:28:44.50 23.867 00:01:09 Yes
12 Scm Lofts - CA 16727-AU21-JEDD BB H 2 08:28:49.50 23.840 00:01:14 Yes
13 B S Lofts - CA 0361-AU21-TOP 1012 & 906 #2 BB H 1 08:29:10.70 23.727 00:01:35 Yes
14 B S Lofts - CA 0351-AU21-TOP 1012 & 906 #1 BB H 2 08:29:18.70 23.684 00:01:43 Yes
15 R & D Racing 2 - ON 19245-AU21-ARPU SMK H 1 08:29:22.40 23.664 00:01:47 Yes
16 TRP Loft - CA 10806-AU21-MAN N2 274 BC H 1 08:29:27.20 23.639 00:01:52 Yes
17 Christopher Loft - UT 0038-AU21-GS BC H 1 08:29:28.50 23.632 00:01:53 Yes
18 Racing Pigeon Mall - WA 0107-AU21-RPM Smoky BBSP H 1 08:29:31.00 23.619 00:01:55 Yes
19 Kfly Racing Pigeon Loft - ID 2113-AU21-KFLY Giraffe X Classic Eagle BB H 1 08:29:35.20 23.597 00:02:00 Yes
19 Puebla Vista - CA 1006-US21-NPA Hannie WHT H 1 08:29:35.20 23.597 00:02:00 Yes
21 Duane Gragg - CA 1051-AU21-AUB BBSP H 1 08:29:36.80 23.588 00:02:01 Yes
22 Fleet Washington - DC 2152-AU21-FLTW BB H 1 08:29:39.20 23.576 00:02:04 Yes
23 Cloux Loft - CO 35100-AU21-AA BC H 2 08:29:50.30 23.517 00:02:15 Yes
24 Genesis Syndicate Loft - AZ 0207-AU21-GENS BB H 2 08:29:54.90 23.493 00:02:19 Yes
25 Sierra Ranch - CA 1067-AU21-AUB BBWF H 1 08:29:58.50 23.474 00:02:23 Yes
26 Okie Shuffle Loft - WI 0424-AU21-VITA BBSP H 1 08:29:58.90 23.472 00:02:23 Yes
27 Valhalla Loft - CA 2230-AU21-WSJ BCPD C 1 08:30:00.90 23.462 00:02:25 Yes
28 Sierra Ranch - CA 1016-AU21-AUB BB H 2 08:30:03.10 23.451 00:02:27 Yes
29 Gottruhm/Whispering Pines - CA 0546-AU21-POP BCSP H 1 08:30:03.90 23.446 00:02:28 Yes
30 Sextons Loft - IA 0226-AU21-DMI RED BLOOD SLT H 1 08:30:06.30 23.434 00:02:31 Yes
31 Erwin Racing Loft - CA 7027-AU21-BON BB H 2 08:30:06.90 23.431 00:02:31 Yes
32 K/N Loft - HI 0013-AU21-FIAH PIED H 1 08:30:11.20 23.408 00:02:36 Yes
33 Rachel Olivieri - CA 0210-AU21-LAKE PIED H 1 08:30:12.80 23.400 00:02:37 Yes
34 R & D Racing 2 - ON 7505-CU21-CRPU BC H 2 08:30:13.20 23.398 00:02:38 Yes
35 Sierra Ranch - CA 1017-AU21-AUB BB H 3 08:30:15.40 23.387 00:02:40 Yes
36 Omelio Perez - NM 21343-AU21-NMRP BB H 1 08:30:16.60 23.380 00:02:41 Yes
37 Tucson Triple Challenge - AZ 11996-AU21-JEDD BB H 1 08:30:17.30 23.377 00:02:42 Yes
38 Sparks Trio Syn - NV 0380-AU21-RENO Roble BB H 1 08:30:17.80 23.374 00:02:42 Yes
39 Fleet Washington - DC 2124-AU21-FLTW BCWF H 2 08:30:19.20 23.367 00:02:44 Yes
40 Nanez Family Loft - WI 1023-AU21-NFL GRIZ H 1 08:30:19.70 23.364 00:02:44 Yes
40 Baglady Loft - CA 8353-AU21-JEDD RCWF H 1 08:30:19.80 23.364 00:02:44 Yes
42 Okie Shuffle Loft - WI 0430-AU21-VITA BB H 2 08:30:27.20 23.326 00:02:52 Yes
43 Prout's Loft - CA 0476-AU21-PROU 3/4 Kannibaal BC H 1 08:30:28.00 23.322 00:02:52 Yes
44 Cline/Bertero - CA 0902-AU21-ML RED H 1 08:30:28.50 23.319 00:02:53 Yes
45 H & H Flying Circus - CA 0404-AU21-ML BB H 2 08:30:28.90 23.317 00:02:53 Yes
46 Funny Farm Loft - CA 5365-AU21-ARC Afton BB H 1 08:30:29.20 23.315 00:02:54 Yes
47 Aceves- C B C - CA 2744-AU21-AA BB H 1 08:30:29.90 23.312 00:02:54 Yes
48 R & D Racing 2 - ON 1833-AU21-AA BB H 3 08:30:30.40 23.309 00:02:55 Yes
49 Silver Bullet Loft - FL 10017-AU21-AA BB H 1 08:30:31.00 23.306 00:02:55 Yes
49 Racing Pigeon Mall - WA 0101-AU21-RPM GRIZ H 2 08:30:31.00 23.306 00:02:55 Yes
51 D J's Loft Of Ca - CA 4953-AU21-FSC BB H 1 08:30:33.20 23.295 00:02:58 Yes
51 Denis Eastwood - CA 23637-AU21-JEDD BBWS H 1 08:30:33.20 23.295 00:02:58 Yes
53 Puebla Vista - CA 0964-US21-NPA SGT. York WHT C 2 08:30:35.10 23.285 00:03:00 Yes
54 C and W Loft - CA 36426-AU21-JEDD BB H 1 08:30:35.60 23.282 00:03:00 Yes
55 BIRDHIGH RANCH - CA 9243-AU21-JEDD PIED H 1 08:30:36.10 23.280 00:03:01 Yes
56 Omelio Perez - NM 21334-AU21-NMRP BB H 2 08:30:36.60 23.277 00:03:01 Yes
57 Peters - GA 0243-IF21-CGC A.B.B.Y 243 (7) BB H 3 08:30:37.50 23.273 00:03:02 Yes
58 Gomez Loft - CA 4174-AU21-CHP BC H 1 08:30:38.90 23.266 00:03:03 Yes
59 R & D Racing 2 - ON 7517-CU21-CRPU BBWF H 4 08:30:40.40 23.258 00:03:05 Yes
60 Whiskey Hollow Loft - TX 0024-AU21-WACO "Capone" BCSP H 1 08:30:42.10 23.249 00:03:07 Yes
61 House Of Paine - CA 1103-AU21-HOP DBJ10xCVR5336 BB H 1 08:30:43.40 23.243 00:03:08 Yes
62 WŸŁØft - CA 25218-AU21-AA Kirk 18532/341 BB C 2 08:30:47.70 23.221 00:03:12 Yes
62 Cala's - NY 0109-AU21-CALA BB H 1 08:30:47.70 23.221 00:03:12 Yes
64 ADS Hilltop Family Loft - Bob - NJ 0012-IF21-PPL Gavin.L MLY H 1 08:30:48.20 23.218 00:03:13 Yes
65 Bieche Lofts - CA 1083-AU21-BIE MLY H 1 08:30:51.40 23.202 00:03:16 Yes
66 Okie Shuffle Loft - WI 0425-AU21-VITA BB H 3 08:30:52.60 23.196 00:03:17 Yes
67 Dan & Greg Coury - AZ 0864-AU21-AONE Lazy Hof BB H 1 08:30:54.50 23.186 00:03:19 Yes
68 H & H Flying Circus - CA 0401-AU21-ML BCSP H 3 08:30:55.40 23.181 00:03:20 Yes
69 R & D Racing 2 - ON 1822-AU21-AA BCSP H 5 08:30:56.20 23.177 00:03:21 Yes
70 Scm Lofts - CA 16721-AU21-JEDD BC H 3 08:30:57.40 23.171 00:03:22 Yes
71 Genesis Syndicate Loft - AZ 0203-AU21-GEN BB H 3 08:30:58.70 23.164 00:03:23 Yes
72 Stealth Loft - UT 3270-AU21-OGN 35861 X 365 PIED H 1 08:31:00.10 23.157 00:03:25 Yes
73 Bieche Lofts - CA 1037-AU21-BIE BC H 2 08:31:00.60 23.155 00:03:25 Yes
74 BIRDHIGH RANCH - CA 9205-AU21-JEDD BB H 2 08:31:01.00 23.153 00:03:25 Yes
75 Banat Loft - IL 2152-AU21-AA BC H 1 08:31:02.30 23.146 00:03:27 Yes
76 Bieche Lofts - CA 1197-AU21-BIE MLY H 3 08:31:05.00 23.133 00:03:29 Yes
77 Ponce & H. Padilla - CA 1640-AU21-MTZ BB H 1 08:31:07.40 23.120 00:03:32 Yes
78 WŸŁØft - CA 25223-AU21-AA Spock 41118/2 DC C 3 08:31:07.80 23.118 00:03:32 Yes
79 Genesis Syndicate Loft - AZ 0210-AU21-GENS BB H 4 08:31:11.20 23.101 00:03:36 Yes
79 FLY EAGLE LOFT - NC 98061-AU21-ARPU BBSP H 2 08:31:11.30 23.101 00:03:36 Yes
81 Kereru Whare - CA 4347-AU21-FSC BB H 1 08:31:11.70 23.099 00:03:36 Yes
82 Puebla Vista - CA 1005-US21-NPA Chan Grover WHT C 3 08:31:14.50 23.084 00:03:39 Yes
83 G & J Lofts - CA 0004-AU21-GJ Justice BB H 1 08:31:15.50 23.079 00:03:40 Yes
84 Nanez Family Loft - WI 1133-AU21-NFL BBSP H 2 08:31:16.20 23.076 00:03:41 Yes
85 Genesis Syndicate Loft - AZ 0209-AU21-GEN BC H 5 08:31:16.50 23.074 00:03:41 Yes
86 SuperStar Loft - TX 0057-AU21-DUBJ 2353 x 26 BB H 1 08:31:17.20 23.071 00:03:42 Yes
87 SinghFamilyLoft - CA 2147-AU21-SING BB H 1 08:31:17.50 23.069 00:03:42 Yes
87 Whiskey Hollow Loft - TX 0020-AU21-WACO "Bugsy" BC H 2 08:31:17.60 23.069 00:03:42 Yes
89 Salvicon - CA 0105-AU21-RBPC BB H 1 08:31:20.30 23.055 00:03:45 Yes
90 Dads Loft - CA 0340-AU21-LAKE BC H 1 08:31:20.80 23.053 00:03:45 Yes
91 Watson & Williams - NV 20226-AU21-JEDD BBSP H 1 08:31:22.40 23.045 00:03:47 Yes
92 O C F Syndicate - CA 1013-AU21-TOP BB H 1 08:31:22.70 23.043 00:03:47 Yes
93 Omelio Perez - NM 14730-AU21-FOYS BB H 3 08:31:24.30 23.035 00:03:49 Yes
94 O C F Syndicate - CA 1004-AU21-TOP BB H 2 08:31:26.70 23.023 00:03:51 Yes
95 Prout's Loft - CA 0471-AU21-PROU Stick/ Sion BB H 2 08:31:27.40 23.020 00:03:52 Yes
96 Salsloft.Com & Sons - UT 0100-IF21-SALS BB H 1 08:31:28.70 23.013 00:03:53 Yes
97 RC Manaois Family Loft - NV 10753-AU21-ARPU BB H 1 08:31:29.30 23.010 00:03:54 Yes
98 Toegi Loft - CA 43711-AU21-ARPU BB H 1 08:31:34.20 22.986 00:03:59 Yes
99 G & J Lofts - CA 0003-AU21-GJ Glory BB H 2 08:31:36.70 22.973 00:04:01 Yes
100 Bieche Lofts - CA 1076-AU21-BIE BB H 4 08:31:37.30 22.970 00:04:02 Yes

There are 360 bird records

Note: These Race Results are unofficial and subject to change until verified by the Race Committee and declared final.